Palmdale, CA

3:46 PM PST on January 17, 2017 (GMT -0800)
Palmdale Af Plant 42

Weather History for KPMD - April, 2011

Change the Weather History Date:

Sunday, April 3, 2011

  Actual Average Record
Temperature  
Mean Temperature 56 °F 55 °F  
Max Temperature 68 °F 69 °F 93 °F (1961)
Min Temperature 43 °F 41 °F 28 °F (1945)
Degree Days  
Heating Degree Days 9 10  
Month to date heating degree days 10 31  
Since 1 July heating degree days 2677 2652  
Cooling Degree Days 0 0  
Month to date cooling degree days 1 0  
Year to date cooling degree days 2 2  
Growing Degree Days 8 (Base 50)    
Moisture  
Dew Point 43 °F    
Average Humidity 59    
Maximum Humidity 80    
Minimum Humidity 37    
Precipitation  
Precipitation 0.00 in 0.01 in 0.49 in (1958)
Month to date precipitation 0.00 0.05  
Year to date precipitation 2.33 4.56  
Since 1 July precipitation 7.71  
Snow  
Snow 0.00 in - 0.00 in (1973)
Month to date snowfall 0.0  
Since 1 July snowfall 0.0  
Snow Depth 0.00 in    
Sea Level Pressure  
Sea Level Pressure 29.94 in    
Wind  
Wind Speed 13 mph (SW)    
Max Wind Speed 30 mph    
Max Gust Speed 35 mph    
Visibility 10 miles    
Events      
T = Trace of Precipitation, MM = Missing Value Source: NWS Daily Summary

Daily Weather History Graph

Daily Weather History Graph

Search for Another Location

Airport or City:

Trip Planner

Search our weather history database for the weather conditions in past years. The results will help you decide how hot, cold, wet, or windy it might be!

Date:

Astronomy

Apr. 03, 2011 Rise Set
Actual Time 6:36 AM PDT 7:14 PM PDT
Civil Twilight 6:11 AM PDT 7:40 PM PDT
Nautical Twilight 5:41 AM PDT 8:10 PM PDT
Astronomical Twilight 5:10 AM PDT 8:40 PM PDT
Moon 6:19 AM PDT (4/3) 7:41 PM PDT (4/3)
Length of Visible Light 13h 28m
Length of Day
12h 38m
New Moon, 0% of the Moon is Illuminated
Apr 3
New Moon
Apr 11
First Quarter
Apr 17
Full
Apr 24
Last Quarter
May 2
New

Hourly Weather History & Observations

Time (PDT) Temp. Dew Point Humidity Pressure Visibility Wind Dir Wind Speed Gust Speed Precip Events Conditions
12:53 AM 53.1 °F 45.0 °F 74% 29.87 in 10.0 mi WSW 16.1 mph - N/A   Clear
1:53 AM 52.0 °F 45.0 °F 77% 29.86 in 10.0 mi SW 18.4 mph 25.3 mph N/A   Clear
2:53 AM 51.1 °F 44.1 °F 77% 29.85 in 10.0 mi SW 15.0 mph - N/A   Clear
3:53 AM 51.1 °F 44.1 °F 77% 29.85 in 10.0 mi SW 16.1 mph - N/A   Clear
4:53 AM 51.1 °F 44.1 °F 77% 29.85 in 10.0 mi SSW 13.8 mph - N/A   Clear
5:53 AM 51.1 °F 44.1 °F 77% 29.88 in 10.0 mi WSW 25.3 mph 34.5 mph N/A   Mostly Cloudy
6:21 AM 51.8 °F 44.6 °F 76% 29.92 in 10.0 mi SW 17.3 mph 28.8 mph N/A   Overcast
6:53 AM 51.1 °F 45.0 °F 80% 29.91 in 10.0 mi SW 19.6 mph 27.6 mph N/A   Overcast
7:14 AM 51.8 °F 44.6 °F 76% 29.95 in 10.0 mi WSW 18.4 mph - N/A   Overcast
7:53 AM 53.1 °F 46.0 °F 77% 29.94 in 10.0 mi WSW 18.4 mph - N/A   Overcast
8:53 AM 54.0 °F 45.0 °F 72% 29.94 in 10.0 mi SW 16.1 mph - N/A   Partly Cloudy
9:44 AM 55.4 °F 44.6 °F 67% 29.99 in 10.0 mi SW 11.5 mph - N/A   Mostly Cloudy
9:53 AM 55.0 °F 44.1 °F 67% 29.96 in 10.0 mi SSW 6.9 mph - N/A   Mostly Cloudy
10:06 AM 60.8 °F 44.6 °F 55% 29.98 in 10.0 mi WSW 8.1 mph - N/A   Mostly Cloudy
10:53 AM 61.0 °F 43.0 °F 52% 29.96 in 10.0 mi West 10.4 mph - N/A   Clear
11:53 AM 62.1 °F 41.0 °F 46% 29.95 in 10.0 mi West 10.4 mph 17.3 mph N/A   Clear
12:53 PM 64.0 °F 41.0 °F 43% 29.93 in 10.0 mi WSW 10.4 mph - N/A   Clear
1:53 PM 66.9 °F 39.0 °F 36% 29.92 in 10.0 mi WSW 17.3 mph 23.0 mph N/A   Clear
2:53 PM 66.9 °F 41.0 °F 39% 29.92 in 10.0 mi SW 16.1 mph - N/A   Clear
3:53 PM 68.0 °F 42.1 °F 39% 29.92 in 10.0 mi WSW 11.5 mph - N/A   Clear
4:53 PM 64.9 °F 43.0 °F 45% 29.93 in 10.0 mi WSW 15.0 mph - N/A   Clear
5:53 PM 63.0 °F 43.0 °F 48% 29.94 in 10.0 mi West 13.8 mph - N/A   Clear
6:53 PM 59.0 °F 45.0 °F 60% 29.97 in 10.0 mi West 10.4 mph - N/A   Clear
7:53 PM 55.9 °F 33.1 °F 42% 30.00 in 10.0 mi West 15.0 mph - N/A   Clear
8:53 PM 53.1 °F 32.0 °F 45% 30.03 in 10.0 mi West 5.8 mph - N/A   Clear
9:53 PM 50.0 °F 42.1 °F 74% 30.05 in 10.0 mi SSW 4.6 mph - N/A   Clear
10:53 PM 48.0 °F 43.0 °F 83% 30.04 in 10.0 mi SSW 5.8 mph - N/A   Clear
11:53 PM 48.0 °F 41.0 °F 77% 30.08 in 10.0 mi South 4.6 mph - N/A   Clear